THORAD AGENA D DEB, 4745

Orbit data source: Space-Track

THORAD AGENA D DEB, 4745 is space debris in SSO originally from a launch on Wed, 08 Apr 1970 UTC launched from the Air Force Western Test Range (AFWTR). Debris objects in space refer to the collection of defunct objects orbiting the Earth. Examples of debris include non-operational satellites, rocket bodies, and fragments generated from explosions, collisions, or faulty payload assembly.

Loading next visibility...
Identifier
4745, 1970-025CU
Orbit
SSO
Country
Flag of USUS
Related business
Manufacturer
Unknown
Mission
Spacecraft
Bus & Motor
Unknown
Mass
Unknown
Launch date (UTC)
1970-04-08 (56 years ago)
Launch vehicle
Unknown
Launch site
Air Force Western Test Range (AFWTR)
Object type
Payload
Rocket body
Debris
Shape & HBR
Unknown shape, 0.1 m
Radar Cross Section
Medium (>0.1 m² and <1 m²)

Expand to show TLE details & history
Last TLE update: 20 hours ago

TLE from 20 hours ago
0 THORAD AGENA D DEB
1 04745U 70025CU  26168.89495890  .00000978  00000-0  71250-3 0  9991
2 04745 100.0987 148.8993 0027308 359.1922   0.9190 13.98893882821379
Epoch: 2026-06-17T21:28Z
TLE epoch observation values (Epoch: 2026-06-17T21:28:44.448Z)
Latitude
-0.00002°
Longitude
-79.43198°
Altitude
880.596 km
Speed
7.422 km/s
True Right ascension
09h 55m 35s
True Declination
0° 00' 00"
Sunlit
Object was in daylight at epoch
Visualization orbit readout
Latitude
Unknown
Longitude
Unknown
Altitude
Unknown
Speed
Unknown
Apparent Right ascension
Unknown
Apparent Declination
Unknown
Sunlit
N/A
Visualization observer readout
Local Sidereal Time
04:15:59
Azimuth
Unknown
Elevation
Unknown
Doppler factor
Unknown
Orbital elements
Apogee altitude
914.747 km
Perigee altitude
875.025 km
Semi-major axis
7,273.023 km
Eccentricity
0.00273
Inclination
100.0987°
RAAN
148.8993°
Arg. of periapsis
359.1922°
True anomaly
0.92404°
Mean anomaly
0.919°
Eccentric anomaly
0.92152°
Mean motion
3.49922 °/min
Orbital period
102.88 mins
BSTAR
0.0007125
Loading maneuver chart data...
Computing Atmospheric mass density...

Documentation

Showing up to 5 results
|